GW3847 Weather Reports


time (UTC)temp
F
wind
direction
speed
knots
gust
knots
rain 1hr
in
rain 24hr
in
rain mn
in
humidity
%
barometer
mb
20260507021005 52 106 0.0 0.0 0.00 0.28 0.28 98 1008.5
20260507020502 52 342 0.0 0.0 0.00 0.28 0.28 98 1008.3
20260507015959 53 31 0.0 0.0 0.00 0.28 0.28 98 1008.2
20260507015458 53 7 0.0 0.0 0.00 0.28 0.28 98 1008.4
20260507014955 53 328 0.9 0.9 0.07 0.28 0.28 97 1008.3
20260507014451 53 119 0.9 1.7 0.07 0.28 0.28 97 1008.2
20260507013947 53 271 0.0 1.7 0.00 0.27 0.27 97 1007.9
20260507013444 54 219 0.9 1.7 0.00 0.27 0.27 97 1008.0
20260507012941 54 235 0.0 2.6 0.00 0.27 0.27 98 1008.0
20260507012438 54 304 0.0 0.0 0.00 0.27 0.27 99 1007.7
20260507011934 55 45 0.0 0.0 0.00 0.27 0.27 99 1007.9
20260507011431 55 30 0.0 0.0 0.12 0.27 0.27 99 1007.5
20260507010926 56 25 1.7 1.7 0.17 0.27 0.27 99 1007.6
20260507010421 57 52 0.0 0.0 0.12 0.25 0.25 99 1007.9
20260507005918 57 164 0.0 0.0 0.14 0.24 0.24 99 1007.5
20260507005415 57 174 0.0 0.0 0.12 0.23 0.23 99 1007.0
20260507004912 57 129 0.0 0.0 0.05 0.22 0.22 99 1007.2
20260507004409 57 152 0.0 0.0 0.00 0.21 0.21 99 1007.1
20260507003906 57 117 0.0 1.7 0.00 0.21 0.21 99 1007.0
20260507003401 57 121 0.9 0.9 0.00 0.21 0.21 99 1007.1
20260507002857 57 80 0.0 2.6 0.00 0.21 0.21 99 1006.7
20260507002353 57 161 0.0 0.0 0.00 0.21 0.21 99 1006.9
20260507001850 57 219 0.0 0.0 0.00 0.21 0.21 99 1006.8
20260507001347 57 81 0.0 0.0 0.00 0.21 0.21 99 1006.8
20260507000844 57 57 0.0 0.0 0.00 0.21 0.21 99 1006.9
20260507000339 57 187 0.0 0.0 0.00 0.21 0.21 99 1006.9
20260506235836 57 192 0.0 0.9 0.00 0.21 0.21 99 1006.8
20260506235333 57 220 0.0 0.0 0.00 0.21 0.21 99 1006.7
20260506234829 57 161 0.0 0.0 0.00 0.21 0.21 99 1006.7
20260506234327 57 162 0.0 0.0 0.00 0.21 0.21 99 1006.8
20260506233824 57 145 1.7 3.5 0.00 0.21 0.21 99 1006.6
20260506233319 57 128 0.0 2.6 0.00 0.21 0.21 99 1006.5
20260506232817 57 199 0.0 3.5 0.00 0.21 0.21 99 1006.4
20260506232312 57 99 0.9 2.6 0.00 0.21 0.21 99 1006.3
20260506231809 57 131 0.0 1.7 0.00 0.21 0.21 99 1006.5
20260506231307 57 129 1.7 2.6 0.07 0.21 0.21 99 1006.7
20260506230804 57 110 0.0 1.7 0.07 0.21 0.21 99 1006.6
20260506230301 57 148 0.9 3.5 0.00 0.20 0.20 99 1006.9
20260506225757 57 245 0.0 0.9 0.00 0.20 0.20 99 1006.7
20260506225254 57 172 0.9 2.6 0.00 0.20 0.20 99 1006.6
20260506224745 57 109 0.0 0.9 0.00 0.20 0.20 99 1006.8
20260506224243 57 163 0.9 1.7 0.00 0.20 0.20 99 1006.7
20260506223738 57 143 0.0 3.5 0.00 0.20 0.20 99 1006.8
20260506223234 57 118 0.0 3.5 0.00 0.20 0.20 99 1006.6
20260506222731 57 232 0.0 0.0 0.00 0.20 0.20 99 1006.8
20260506222226 57 133 1.7 1.7 0.00 0.20 0.20 98 1006.8
20260506221725 57 142 0.9 1.7 0.00 0.20 0.20 98 1006.7
20260506221223 57 225 0.0 1.7 0.00 0.20 0.20 98 1006.8
20260506220720 57 175 2.6 5.2 0.00 0.20 0.20 98 1006.8
20260506220214 57 134 0.9 5.2 0.00 0.20 0.20 97 1006.8
20260506215711 58 162 0.0 1.7 0.00 0.20 0.20 98 1006.8
20260506215206 58 110 2.6 3.5 0.00 0.20 0.20 97 1006.9
20260506214658 58 149 0.9 2.6 0.00 0.20 0.20 97 1006.7
20260506214155 58 154 0.9 2.6 0.00 0.20 0.20 97 1006.9
20260506213654 58 119 1.7 7.0 0.00 0.20 0.20 97 1006.7
20260506213150 58 122 0.9 2.6 0.00 0.20 0.20 97 1006.7
20260506212647 58 93 1.7 5.2 0.00 0.20 0.20 97 1006.7
20260506212142 58 95 1.7 2.6 0.00 0.20 0.20 97 1006.9
20260506211638 58 145 0.0 3.5 0.00 0.20 0.20 99 1006.9
20260506211135 58 120 0.0 0.0 0.00 0.20 0.20 98 1006.9
20260506210632 58 124 0.0 2.6 0.00 0.20 0.20 98 1006.7
20260506210129 58 165 0.9 1.7 0.00 0.20 0.20 98 1007.0
20260506205626 58 119 1.7 3.5 0.00 0.20 0.20 98 1006.8
20260506205120 58 157 0.0 0.9 0.00 0.20 0.20 98 1006.9
20260506204619 58 174 1.7 6.1 0.00 0.20 0.20 98 1007.0
20260506204115 59 175 3.5 7.0 0.00 0.20 0.20 98 1007.1
20260506203614 59 129 0.0 2.6 0.00 0.20 0.20 98 1007.1
20260506203110 59 119 0.0 1.7 0.00 0.20 0.20 99 1007.2
20260506202608 59 83 1.7 5.2 0.00 0.20 0.20 99 1007.2
20260506202104 59 141 0.0 1.7 0.00 0.20 0.20 99 1007.2
20260506201601 59 128 0.9 1.7 0.00 0.20 0.20 99 1007.4
20260506201058 59 115 0.0 0.9 0.05 0.20 0.20 99 1007.4
20260506200554 59 46 0.0 1.7 0.05 0.20 0.20 99 1007.2
20260506200051 58 155 0.0 5.2 0.07 0.19 0.19 99 1007.3
20260506195547 58 320 0.9 2.6 0.07 0.19 0.19 99 1007.7
20260506195044 58 173 0.0 1.7 0.00 0.18 0.18 99 1007.6
20260506194542 59 112 0.0 1.7 0.05 0.18 0.18 99 1007.6
20260506194038 59 179 0.0 0.0 0.12 0.18 0.18 99 1007.9
20260506193536 59 108 0.9 3.5 0.07 0.17 0.17 99 1007.9
20260506193032 59 142 0.0 2.6 0.12 0.16 0.16 99 1007.7
20260506192529 59 138 0.9 1.7 0.12 0.15 0.15 99 1007.7
20260506192025 59 93 0.0 1.7 0.19 0.14 0.14 99 1007.7
20260506191522 60 202 0.0 0.0 0.12 0.12 0.12 99 1007.7
20260506191018 60 128 0.0 0.0 0.05 0.11 0.11 99 1007.9
20260506190515 60 174 0.0 0.0 0.00 0.10 0.10 98 1008.2
20260506190012 61 131 0.0 1.7 0.00 0.10 0.10 98 1007.9
20260506185510 60 133 0.0 0.0 0.00 0.10 0.10 98 1007.7
20260506185006 60 317 0.0 0.0 0.00 0.10 0.10 98 1007.6
20260506184504 60 96 0.0 0.0 0.07 0.10 0.10 99 1007.6
20260506184001 60 168 0.0 0.0 0.07 0.10 0.10 98 1007.7
20260506183456 60 140 0.0 2.6 0.00 0.09 0.09 98 1008.1
20260506182953 60 146 0.0 0.0 0.05 0.09 0.09 98 1008.4
20260506182450 60 184 0.0 0.0 0.05 0.09 0.09 98 1008.4
20260506181947 60 231 0.0 0.0 0.07 0.08 0.08 98 1008.5
20260506181445 59 173 0.0 0.0 0.07 0.08 0.08 98 1008.5
20260506180942 59 137 0.0 0.0 0.05 0.07 0.07 98 1009.1
20260506180438 59 169 0.0 2.6 0.05 0.07 0.07 98 1008.9
20260506175935 59 153 0.0 0.0 0.00 0.06 0.06 97 1009.1
20260506175432 59 115 0.0 1.7 0.07 0.06 0.06 98 1008.9
20260506174928 59 138 0.0 0.0 0.00 0.05 0.05 98 1009.1
20260506174427 59 165 0.0 0.0 0.05 0.05 0.05 98 1009.1
20260506173923 59 138 0.0 0.0 0.12 0.05 0.05 97 1009.3
20260506173420 60 100 0.0 0.0 0.07 0.04 0.04 97 1009.3
20260506172917 59 119 0.0 1.7 0.05 0.03 0.03 96 1009.3
20260506172414 59 123 0.0 0.9 0.07 0.02 0.02 95 1009.4
20260506171911 60 104 0.0 0.0 0.07 0.02 0.02 95 1009.4
20260506171408 60 146 0.0 0.0 0.05 0.01 0.01 95 1009.5
20260506170906 60 146 0.0 0.0 0.05 0.01 0.01 93 1009.4
20260506170401 61 135 0.0 1.7 0.00 0.00 0.00 92 1009.2
20260506165900 61 121 0.0 0.9 0.00 0.00 0.00 91 1009.3
20260506165358 61 212 1.7 3.5 0.00 0.00 0.00 88 1009.4
20260506164849 62 193 0.9 7.0 0.00 0.00 0.00 84 1009.3
20260506164345 62 136 1.7 5.2 0.00 0.00 0.00 82 1009.4
20260506163844 63 170 1.7 2.6 0.00 0.00 0.00 81 1009.3
20260506163338 64 239 0.0 3.5 0.00 0.00 0.00 80 1009.6
20260506162833 65 287 1.7 3.5 0.00 0.00 0.00 76 1009.2
20260506162331 65 173 3.5 5.2 0.00 0.00 0.00 75 1009.3
20260506161828 65 140 1.7 1.7 0.00 0.00 0.00 76 1009.4
20260506161325 64 286 0.0 3.5 0.00 0.00 0.00 77 1009.5
20260506160818 65 102 2.6 7.0 0.00 0.00 0.00 76 1009.8
20260506160314 65 190 0.0 0.9 0.00 0.00 0.00 77 1009.8
20260506155813 64 117 0.0 3.5 0.00 0.00 0.00 76 1009.8
20260506155309 65 218 1.7 3.5 0.00 0.00 0.00 77 1009.9
20260506153421 65 90 1.7 2.6 0.00 0.00 0.00 76 1010.0
20260506152919 64 180 0.9 2.6 0.00 0.00 0.00 76 1010.1
20260506152416 64 135 0.0 2.6 0.00 0.00 0.00 77 1010.3
20260506151915 64 75 3.5 3.5 0.00 0.00 0.00 76 1010.1
20260506151411 64 123 0.0 6.1 0.00 0.00 0.00 77 1010.2
20260506150909 64 175 2.6 7.8 0.00 0.00 0.00 76 1010.2
20260506150404 65 144 0.9 7.0 0.00 0.00 0.00 75 1010.3
20260506145902 65 153 3.5 6.1 0.00 0.00 0.00 75 1010.4
20260506145358 65 145 1.7 5.2 0.00 0.00 0.00 75 1010.2
20260506144855 65 183 2.6 3.5 0.00 0.00 0.00 74 1010.2
20260506144352 66 213 0.0 3.5 0.00 0.00 0.00 74 1010.2
20260506143850 66 226 0.0 0.0 0.00 0.00 0.00 75 1009.9
20260506143347 66 323 0.9 2.6 0.00 0.00 0.00 74 1010.1
20260506142845 66 139 0.0 2.6 0.00 0.00 0.00 74 1010.4
20260506142343 66 123 0.0 6.1 0.00 0.00 0.00 74 1010.4
20260506141841 68 105 2.6 5.2 0.00 0.00 0.00 72 1010.1
20260506141339 69 262 0.9 2.6 0.00 0.00 0.00 70 1009.9
20260506140836 67 152 0.0 6.1 0.00 0.00 0.00 75 1010.0
20260506140333 65 83 1.7 2.6 0.00 0.00 0.00 75 1009.8
20260506135830 65 209 3.5 5.2 0.00 0.00 0.00 75 1009.9
20260506135327 65 179 0.9 3.5 0.00 0.00 0.00 76 1010.0
20260506134823 66 71 0.9 2.6 0.00 0.00 0.00 75 1009.8
20260506134319 65 145 0.0 0.9 0.00 0.00 0.00 77 1009.9
20260506133817 64 97 0.9 6.1 0.00 0.00 0.00 78 1009.8
20260506133313 65 138 0.9 1.7 0.00 0.00 0.00 77 1009.9
20260506132810 64 171 0.0 1.7 0.00 0.00 0.00 80 1010.1
20260506132307 63 174 1.7 3.5 0.00 0.00 0.00 81 1010.3
20260506131805 62 95 0.0 2.6 0.00 0.00 0.00 82 1010.4
20260506131301 61 80 2.6 3.5 0.00 0.00 0.00 82 1010.3
20260506130758 61 235 0.9 3.5 0.00 0.00 0.00 83 1010.3
20260506130255 61 27 0.0 5.2 0.00 0.00 0.00 82 1010.3
20260506125753 61 86 0.9 3.5 0.00 0.00 0.00 82 1010.5
20260506125251 61 198 0.0 0.9 0.00 0.00 0.00 83 1010.6
20260506124749 61 110 2.6 5.2 0.00 0.00 0.00 83 1010.6
20260506124246 61 338 1.7 7.0 0.00 0.00 0.00 83 1010.5
20260506123743 61 169 1.7 3.5 0.00 0.00 0.00 83 1010.5
20260506123242 61 110 1.7 7.0 0.00 0.00 0.00 83 1010.6
20260506122738 61 124 2.6 5.2 0.00 0.00 0.00 83 1010.4
20260506122236 61 117 1.7 3.5 0.00 0.00 0.00 85 1010.4
20260506121734 60 142 0.0 6.1 0.00 0.00 0.00 84 1010.4
20260506121230 60 126 1.7 7.0 0.00 0.00 0.00 84 1010.3
20260506120727 60 113 0.9 3.5 0.00 0.00 0.00 84 1010.3
20260506120225 60 125 1.7 5.2 0.00 0.00 0.00 84 1010.4
20260506115723 60 34 0.9 3.5 0.00 0.00 0.00 84 1010.6
20260506115221 60 150 0.9 7.0 0.00 0.00 0.00 84 1010.4
20260506114718 60 31 0.9 5.2 0.00 0.00 0.00 85 1010.7
20260506114216 60 139 0.0 0.0 0.00 0.00 0.00 85 1010.4
20260506113714 60 83 0.0 3.5 0.00 0.00 0.00 85 1010.6
20260506113211 59 172 0.9 2.6 0.00 0.00 0.00 84 1010.6
20260506112707 59 121 0.0 6.1 0.00 0.00 0.00 85 1010.7
20260506112205 58 88 4.3 7.8 0.00 0.00 0.00 85 1010.7
20260506111702 58 138 1.7 3.5 0.00 0.00 0.00 86 1010.6
20260506111201 58 137 0.9 6.1 0.00 0.00 0.00 86 1010.4
20260506110657 58 137 0.9 3.5 0.00 0.00 0.00 86 1010.6
20260506110155 58 290 0.0 0.9 0.00 0.00 0.00 86 1010.6
20260506105651 58 223 0.0 0.9 0.00 0.00 0.00 86 1010.7
20260506105148 57 108 0.0 2.6 0.00 0.00 0.00 87 1010.6
20260506104646 57 41 0.9 1.7 0.00 0.00 0.00 87 1010.7
20260506104143 57 182 0.9 1.7 0.00 0.00 0.00 88 1010.6
20260506103641 56 218 0.0 0.0 0.00 0.00 0.00 88 1010.6
20260506103137 56 121 0.0 0.0 0.00 0.00 0.00 88 1010.8
20260506102636 56 118 0.0 0.0 0.00 0.00 0.00 88 1010.6
20260506102133 56 229 0.0 3.5 0.00 0.00 0.00 88 1010.6
20260506101629 55 224 0.0 0.0 0.00 0.00 0.00 89 1010.7
20260506101126 55 219 0.0 0.9 0.00 0.00 0.00 89 1010.9
20260506100625 55 109 0.0 1.7 0.00 0.00 0.00 89 1010.6
20260506100122 55 204 0.0 0.0 0.00 0.00 0.00 90 1010.5
20260506095621 55 215 0.0 0.0 0.00 0.00 0.00 89 1010.6
20260506095117 55 176 0.0 0.0 0.00 0.00 0.00 89 1010.7
20260506094615 55 221 0.0 0.0 0.00 0.00 0.00 89 1010.7
20260506094112 55 219 0.0 0.0 0.00 0.00 0.00 89 1010.5
20260506093611 56 159 0.0 0.0 0.00 0.00 0.00 88 1010.5
20260506093108 56 169 0.0 0.0 0.00 0.00 0.00 88 1010.7
20260506092605 56 130 0.0 1.7 0.00 0.00 0.00 87 1010.8
20260506092102 56 129 0.0 0.0 0.00 0.00 0.00 87 1010.4
20260506091600 56 156 0.0 0.0 0.00 0.00 0.00 86 1010.7
20260506091057 56 168 0.0 1.7 0.00 0.00 0.00 86 1010.5
20260506090555 57 161 0.0 0.9 0.00 0.00 0.00 85 1010.5
20260506090051 57 95 1.7 3.5 0.00 0.00 0.00 85 1010.6
20260506085548 56 188 0.0 1.7 0.00 0.00 0.00 86 1010.7
20260506085044 57 121 0.0 2.6 0.00 0.00 0.00 85 1010.9
20260506084542 56 158 0.9 0.9 0.00 0.00 0.00 86 1010.6
20260506084038 56 182 0.0 2.6 0.00 0.00 0.00 86 1010.6
20260506083535 56 82 0.0 0.0 0.00 0.00 0.00 86 1010.7
20260506083032 56 165 0.0 1.7 0.00 0.00 0.00 86 1010.7
20260506082529 56 151 0.0 2.6 0.00 0.00 0.00 86 1010.8
20260506082025 56 210 0.0 0.0 0.00 0.00 0.00 85 1010.9
20260506081523 56 162 0.0 1.7 0.00 0.00 0.00 85 1011.0
20260506081020 56 81 0.0 0.0 0.00 0.00 0.00 85 1010.8
20260506080518 57 178 0.0 1.7 0.00 0.00 0.00 84 1010.6
20260506073501 58 60 1.7 1.7 0.00 0.00 0.00 80 1010.9
20260506072958 58 131 0.9 3.5 0.00 0.00 0.00 80 1011.1
20260506072455 58 194 0.9 0.9 0.00 0.00 0.00 80 1011.2
20260506071953 59 134 0.0 0.9 0.00 0.00 0.00 79 1011.0
20260506071451 59 79 0.0 1.7 0.00 0.00 0.00 79 1010.9
20260506070947 59 182 0.0 1.7 0.00 0.00 0.00 79 1010.9
20260506070444 59 204 0.0 3.5 0.00 0.00 0.00 78 1010.9
20260506062422 60 131 0.0 1.7 0.00 0.00 0.00 76 1010.7
20260506061918 60 145 0.0 3.5 0.00 0.00 0.00 76 1010.5
20260506061415 60 167 5.2 11.3 0.00 0.00 0.00 75 1010.8
20260506060913 60 200 1.7 2.6 0.00 0.00 0.00 75 1010.6
20260506060410 60 228 1.7 6.1 0.00 0.00 0.00 74 1010.8
20260506051342 61 222 0.9 2.6 0.00 0.00 0.00 73 1010.8
20260506050840 61 177 0.0 3.5 0.00 0.00 0.00 74 1010.9
20260506050337 60 211 1.7 5.2 0.00 0.00 0.00 74 1010.7
20260506044827 61 145 0.0 1.7 0.00 0.00 0.00 73 1011.1
20260506044325 61 181 0.0 0.0 0.00 0.00 0.00 73 1011.1
20260506043822 61 26 1.7 2.6 0.00 0.00 0.00 73 1011.0
20260506043320 61 24 0.0 0.9 0.00 0.00 0.00 74 1011.1
20260506042818 60 300 1.7 5.2 0.00 0.00 0.00 73 1011.1
20260506042317 60 109 0.9 5.2 0.00 0.00 0.00 74 1010.9
20260506041815 60 186 0.0 2.6 0.00 0.00 0.00 75 1011.2
20260506041311 60 113 0.0 5.2 0.00 0.00 0.00 75 1011.0
20260506040809 60 118 0.0 2.6 0.00 0.00 0.00 76 1011.2
20260506040306 60 167 0.0 3.5 0.00 0.00 0.00 77 1011.0
20260506035802 60 168 0.0 7.0 0.00 0.02 0.02 76 1011.0
20260506035259 60 124 0.9 3.5 0.00 0.02 0.02 77 1011.3
20260506034756 60 158 0.0 1.7 0.00 0.02 0.02 80 1010.9
20260506034254 60 158 0.0 1.7 0.00 0.02 0.02 79 1011.2
20260506033750 60 223 0.0 0.9 0.00 0.02 0.02 82 1010.9
20260506033247 60 191 1.7 1.7 0.00 0.02 0.02 82 1011.1
20260506032744 60 218 0.9 8.7 0.00 0.02 0.02 81 1011.0
20260506032241 60 139 0.0 3.5 0.00 0.02 0.02 81 1010.9
20260506031738 59 219 0.0 1.7 0.00 0.02 0.02 88 1010.8
20260506031235 60 225 0.0 1.7 0.00 0.02 0.02 85 1010.9
20260506030733 59 115 0.0 3.5 0.00 0.02 0.02 86 1011.1
20260506030230 59 207 0.0 1.7 0.00 0.02 0.02 86 1011.0
20260506025722 59 157 0.0 0.0 0.00 0.02 0.02 91 1011.1
20260506025218 58 107 0.9 3.5 0.00 0.02 0.02 88 1011.0
20260506024715 57 153 0.0 0.0 0.00 0.02 0.02 95 1010.9
20260506024211 57 179 0.0 0.9 0.00 0.02 0.02 99 1011.0
20260506023708 57 241 0.0 0.0 0.00 0.02 0.02 99 1011.1
20260506023205 57 190 0.0 0.0 0.00 0.02 0.02 99 1011.0
20260506022702 57 188 0.0 0.0 0.00 0.02 0.02 99 1011.1
20260506022200 57 178 0.0 0.0 0.00 0.02 0.02 99 1011.1
20260506021657 57 198 0.0 0.0 0.00 0.02 0.02 99 1011.1